Location: SBMNH
(34.4407°N, 119.7157°W)
Time: 20:58:00
(UTC-07:00)

X-37B - Pass Details

Date: 25 August 2022
Orbit: 329 x 342 km, 45.0° (Epoch: 29 September)

Event Time Altitude Azimuth Distance (km) Brightness Sun altitude
Rises 19:59:49 0° 276° (W) 2,081 6.5 -6.0°
Reaches altitude 10° 20:02:16 10° 299° (WNW) 1,249 4.8 -6.5°
Maximum altitude 20:04:11 17° 342° (NNW) 950 3.0 -6.8°
Drops below altitude 10° 20:06:05 10° 25° (NNE) 1,254 3.1 -7.2°
Sets 20:08:33 0° 48° (NE) 2,092 4.0 -7.7°
